Location: Newark
(44.7667°N, 11.5000°E)
Time: 11:16:50
(UTC+00:00)

N. Korean satellite - Visible Passes

Search period start: 20 October 2019 00:00
Search period end: 30 October 2019 00:00
Orbit: 455 x 508 km, 97.2° (Epoch: 19 October)

Date Brightness Start Highest point End Pass type
(mag) Time Alt. Az. Time Alt. Az. Time Alt. Az.
20 Oct 8.2 04:49:01 10° NNE 04:52:27 40° E 04:55:55 10° S visible
20 Oct 9.2 16:59:58 10° SSW 17:02:52 25° W 17:05:47 10° NW visible
21 Oct 9.6 04:24:14 10° NE 04:27:02 21° E 04:29:51 10° SE visible
22 Oct 10.5 04:00:39 10° ENE 04:01:32 11° E 04:02:24 10° ESE visible
23 Oct 7.0 05:06:19 10° NNE 05:09:58 70° ESE 05:13:38 10° S visible
23 Oct 10.0 17:18:16 10° SW 17:20:26 16° W 17:22:37 10° NW visible
24 Oct 8.6 04:41:16 10° NNE 04:44:36 33° E 04:47:58 10° SSE visible
24 Oct 8.7 16:51:52 10° SSW 16:54:57 31° W 16:58:06 10° NNW visible
25 Oct 9.9 04:16:39 10° NE 04:19:09 17° E 04:21:40 10° SE visible
27 Oct 7.5 04:58:29 10° NNE 05:02:06 56° E 05:05:45 10° S visible
27 Oct 9.7 17:09:55 10° SW 17:12:29 19° W 17:15:05 10° NW visible
28 Oct 9.1 04:33:31 10° NE 04:36:42 27° E 04:39:54 10° SSE visible
28 Oct 8.2 16:43:46 10° S 16:47:01 39° W 16:50:21 10° NNW visible
29 Oct 10.1 04:09:08 10° ENE 04:11:13 14° E 04:13:18 10° SE visible
